Tracking 29892 objects as of 21-Nov-2024
HD Live streaming from Space Station
objects crossing your sky now

STARLINK-4293

Track STARLINK-4293 now!
10-day predictions
STARLINK-4293 is classified as:


NORAD ID: 52989
Int'l Code: 2022-076D
Perigee: 546.1 km
Apogee: 547.7 km
Inclination: 53.2 °
Period: 95.4 minutes
Semi major axis: 6917 km
RCS: Unknown
Launch date: July 7, 2022
Source: United States (US)
Launch site: AIR FORCE EASTERN TEST RANGE (AFETR)
Your satellite tracking list
Your tracking list is empty




NASA's NSSDC Master Catalog

Two Line Element Set (TLE):
1 52989U 22076D   24324.60731372  .00001628  00000-0  12033-3 0  9993
2 52989  53.2160  76.8434 0001121  87.7449 272.3672 15.08840527130988
Source of the keplerian elements: AFSPC